Showing default

ERS 15, 2412

Orbit data source: Space-Track

ERS 15, 2412 is a payload satellite owned by USAF SSD (US) in LEO that was launched on Fri, 19 Aug 1966 UTC via an ATLAS SLV-3 AGENA D launch vehicle from the Air Force Western Test Range (AFWTR). Payload-class satellites include a variety of spacecraft equipped with specific instruments for various scientific and technological missions. These include communications satellites like Starlink; space stations such as the ISS; scientific satellites like the Hubble; Earth observation satellites from companies like Planet Labs, Umbra, and HawkEye 360; GPS; miniature CubeSats for education and research; and military/defense satellites.

Loading next visibility...
Identifier
2412, 1966-077C
Orbit
LEO
Country
Flag of USUS
Related business
Manufacturer
TRW
Mission
Spacecraft
Bus & Motor
ORS, Unknown motor
Mass
5 kg wet, 5 kg dry
Launch date (UTC)
1966-08-19 (59 years ago)
Launch vehicle
ATLAS SLV-3 AGENA D
Launch site
Air Force Western Test Range (AFWTR)
Object type
Payload
Rocket body
Debris
Shape & HBR
Unknown
Radar Cross Section
Medium (>0.1 m² and <1 m²)

Expand to show TLE details & history
Last TLE update: 21 hours ago

TLE from 21 hours ago
0 ERS 15
1  2412U 66077C   25307.90133144  .00000002  00000-0  00000+0 0  9998
2  2412  90.3311 274.6006 0006818 295.9505  64.0643  8.59078655371110
Epoch: 2025-11-03T21:37Z
TLE epoch observation values (Epoch: 2025-11-03T21:37:55.036Z)
Latitude
-0.00006°
Longitude
-93.27477°
Altitude
3,691.445 km
Speed
6.293 km/s
True Right ascension
18h 18m 24s
True Declination
0° 00' 00"
Sunlit
Object was in daylight at epoch
Visualization orbit readout
Latitude
Unknown
Longitude
Unknown
Altitude
Unknown
Speed
Unknown
Apparent Right ascension
Unknown
Apparent Declination
Unknown
Sunlit
N/A
Visualization observer readout
Local Sidereal Time
14:19:50
Azimuth
Unknown
Elevation
Unknown
Doppler factor
Unknown
Orbital elements
Apogee altitude
3,696.944 km
Perigee altitude
3,683.215 km
Semi-major axis
10,068.216 km
Eccentricity
0.00068
Inclination
90.3311°
RAAN
274.6006°
Arg. of periapsis
295.9505°
True anomaly
64.13459°
Mean anomaly
64.0643°
Eccentric anomaly
64.09944°
Mean motion
2.1484 °/min
Orbital period
167.57 mins
BSTAR
0
Loading maneuver chart data...
Computing Atmospheric mass density...
Loading historical data...
Loading historical data...
Loading historical data...
Loading historical data...
Loading historical data...
Loading historical data...
Loading historical data...

Documentation

Showing up to 5 results
|